Flag for Italy Weather past 2 weeks in Modena, Italy

Now
84 °F

Passing clouds.


Feels Like: 85 °F
Forecast: 65 / 79 °F
Wind: 5 mph from Southeast

Location: Bologna / Borgo Panigale

Current Time: Jul 28, 2014 at 12:57:30 PM

Latest Report: Jul 28, 2014 at 11:50 AM


Visibility: N/A

Pressure: 29.86 "Hg

Humidity: 48%

Dew point: 63 °F

Location of ModenaLocation

Historic Weather in Modena — Graph

°F

Modena temperature yesterday

Maximum temperature yesterday: 81 °F (at 3:50 PM)
Minimum temperature yesterday: 64 °F (at 12:20 AM)
Average temperature yesterday: 72 °F

Past Weeks' High & Low Weather Summary

 TemperatureHumidityPressure
High93 °F (Jul 19, 2:50 PM)100% (Jul 25, 3:20 AM)30.09 "Hg (Jul 25, 3:20 AM)
Low61 °F (Jul 21, 7:50 PM)26% (Jul 17, 6:20 PM)29.74 "Hg (Jul 21, 5:50 AM)
Average75 °F68%29.92 "Hg
* Reported Jul 13 11:20 AM — Jul 28 11:50 AM, Modena, Weather by CustomWeather, © 2014

Note: Actual official high and low records may vary slightly from our data, if they occured in-between our weather recording intervals... More about our weather records

Advertising

Modena weather history for previous 24 hours

 ConditionsComfort  
Time TempWeatherWind HumidityBarometerVisibility
11:50 AM
Jul 28
84 °FPassing clouds.5 mph48%29.86 "HgN/A
11:20 AM84 °FSunny.5 mph43%29.86 "Hg10 mi
10:50 AM82 °FPassing clouds.6 mph48%29.86 "HgN/A
10:20 AM81 °FSunny.6 mph54%29.86 "Hg10 mi
9:50 AM79 °FPassing clouds.5 mph58%29.86 "HgN/A
9:20 AM77 °FSunny.6 mph65%29.89 "Hg10 mi
8:50 AM75 °FSunny.7 mph65%29.89 "Hg10 mi
8:20 AM70 °FPassing clouds.9 mph78%29.89 "HgN/A
7:50 AM72 °FSunny.9 mph73%29.86 "Hg10 mi
7:20 AM68 °FSunny.9 mph78%29.86 "Hg10 mi
6:50 AM68 °FClear.8 mph78%29.86 "Hg10 mi
6:20 AM68 °FClear.9 mph78%29.86 "Hg10 mi
5:50 AM66 °FClear.8 mph88%29.86 "Hg10 mi
5:20 AM66 °FClear.9 mph88%29.86 "Hg10 mi
4:20 AM66 °FClear.8 mph88%29.86 "Hg10 mi
3:50 AM66 °FClear.8 mph88%29.89 "Hg10 mi
3:20 AM66 °FClear.7 mph88%29.89 "Hg10 mi
2:50 AM68 °FClear.7 mph83%29.89 "Hg10 mi
2:20 AM68 °FClear.8 mph88%29.89 "Hg10 mi
1:50 AM68 °FClear.7 mph88%29.89 "Hg10 mi
1:20 AM68 °FClear.7 mph88%29.89 "Hg10 mi
12:50 AM68 °FClear.5 mph88%29.89 "Hg10 mi
12:20 AM68 °FClear.6 mph88%29.89 "Hg10 mi
11:50 PM
Jul 27
70 °FClear.6 mph83%29.89 "Hg10 mi
11:20 PM70 °FClear.6 mph83%29.89 "Hg10 mi
10:50 PM72 °FClear.5 mph78%29.89 "Hg10 mi
10:20 PM73 °FPassing clouds.3 mph74%29.89 "HgN/A
9:20 PM73 °FSunny.2 mph78%29.89 "Hg10 mi
8:50 PM77 °FSunny.3 mph65%29.86 "Hg10 mi
8:20 PM79 °FPassing clouds.3 mph61%29.86 "HgN/A
7:50 PM79 °FPassing clouds.5 mph58%29.86 "HgN/A
7:20 PM81 °FPassing clouds.6 mph58%29.86 "HgN/A
6:50 PM81 °FScattered clouds.6 mph54%29.86 "HgN/A
6:20 PM81 °FScattered clouds.6 mph54%29.86 "HgN/A
5:20 PM81 °FScattered clouds.6 mph58%29.86 "HgN/A
4:50 PM81 °FScattered clouds.6 mph58%29.86 "HgN/A
4:20 PM79 °FScattered clouds.7 mph61%29.89 "HgN/A
3:50 PM81 °FScattered clouds.6 mph54%29.89 "HgN/A
3:20 PM79 °FScattered clouds.6 mph58%29.89 "HgN/A
2:50 PM79 °FScattered clouds.5 mph58%29.89 "HgN/A
2:20 PM77 °FScattered clouds.5 mph65%29.89 "HgN/A
1:50 PM77 °FScattered clouds.7 mph65%29.89 "HgN/A
1:20 PM75 °FScattered clouds.2 mph65%29.89 "HgN/A
12:50 PM75 °FScattered clouds.3 mph65%29.92 "HgN/A
12:20 PM75 °FScattered clouds.5 mph74%29.92 "HgN/A
Weather by CustomWeather, © 2014

See weather overviewHow to use our weather pages